Cape Girardeau, MO

6:13 PM CST on December 17, 2017 (GMT -0600)
Cape Girardeau Regional

Weather History for KCGI - November, 2011

Change the Weather History Date:

Wednesday, November 2, 2011

  Actual Average Record
Temperature  
Mean Temperature 57 °F 52 °F  
Max Temperature 71 °F 64 °F 81 °F (2016)
Min Temperature 43 °F 41 °F 24 °F (1966)
Degree Days  
Heating Degree Days 8    
Month to date heating degree days 20  
Since 1 July heating degree days 307  
Cooling Degree Days 0    
Month to date cooling degree days 0  
Year to date cooling degree days 1697  
Growing Degree Days 6 (Base 50)    
Moisture  
Dew Point 40 °F    
Average Humidity 58    
Maximum Humidity 76    
Minimum Humidity 40    
Precipitation  
Precipitation 0.00 in 0.13 in 0.95 in (1983)
Month to date precipitation 0.00 0.26  
Year to date precipitation 58.99 38.38  
Sea Level Pressure  
Sea Level Pressure 30.11 in    
Wind  
Wind Speed 10 mph (South)    
Max Wind Speed 23 mph    
Max Gust Speed 28 mph    
Visibility 10 miles    
Events      
T = Trace of Precipitation, MM = Missing Value Source: NWS Daily Summary

Daily Weather History Graph

Daily Weather History Graph

Search for Another Location

Airport or City:

Trip Planner

Search our weather history database for the weather conditions in past years. The results will help you decide how hot, cold, wet, or windy it might be!

Date:

Astronomy

Nov. 02, 2011 Rise Set
Actual Time 7:23 AM CDT 5:59 PM CDT
Civil Twilight 6:56 AM CDT 6:26 PM CDT
Nautical Twilight 6:25 AM CDT 6:57 PM CDT
Astronomical Twilight 5:55 AM CDT 7:27 PM CDT
Moon 1:43 PM CDT (11/2) No Moon Set
Length of Visible Light 11h 30m
Length of Day
10h 36m
Waxing Crescent, 50% of the Moon is Illuminated
Nov 2
Waxing Crescent
Nov 10
Full
Nov 18
Last Quarter
Nov 25
New
Dec 2
First Quarter

Hourly Weather History & Observations

Time (CDT) Temp. Windchill Dew Point Humidity Pressure Visibility Wind Dir Wind Speed Gust Speed Precip Events Conditions
12:53 AM 48.0 °F - 32.0 °F 54% 30.16 in 10.0 mi ESE 5.8 mph - N/A   Clear
1:53 AM 45.0 °F 41.2 °F 34.0 °F 65% 30.16 in 10.0 mi South 6.9 mph - N/A   Clear
2:53 AM 48.0 °F - 35.1 °F 61% 30.16 in 10.0 mi South 6.9 mph - N/A   Clear
3:53 AM 48.9 °F - 36.0 °F 61% 30.17 in 10.0 mi South 8.1 mph - N/A   Clear
4:53 AM 46.0 °F - 35.1 °F 66% 30.19 in 10.0 mi Calm Calm - N/A   Clear
5:53 AM 44.1 °F - 35.1 °F 71% 30.20 in 10.0 mi Calm Calm - N/A   Clear
6:53 AM 43.0 °F - 35.1 °F 74% 30.20 in 10.0 mi Calm Calm - N/A   Clear
7:53 AM 46.0 °F - 37.0 °F 71% 30.20 in 10.0 mi Calm Calm - N/A   Clear
8:53 AM 53.1 °F - 39.9 °F 61% 30.21 in 10.0 mi South 11.5 mph - N/A   Clear
9:53 AM 57.0 °F - 42.1 °F 57% 30.20 in 10.0 mi South 12.7 mph - N/A   Clear
10:53 AM 62.1 °F - 45.0 °F 53% 30.20 in 10.0 mi South 10.4 mph - N/A   Clear
11:53 AM 66.2 °F - 46.4 °F 49% 30.18 in 10.0 mi SSW 11.5 mph - N/A   Clear
12:53 PM 68.0 °F - 45.0 °F 43% 30.14 in 10.0 mi SSW 15.0 mph 23.0 mph N/A   Clear
1:53 PM 69.1 °F - 46.9 °F 45% 30.11 in 10.0 mi SSW 19.6 mph 25.3 mph N/A   Clear
2:53 PM 69.1 °F - 48.0 °F 47% 30.07 in 10.0 mi South 17.3 mph 27.6 mph N/A   Clear
3:53 PM 69.1 °F - 45.0 °F 42% 30.04 in 8.0 mi South 17.3 mph 26.5 mph N/A   Clear
4:53 PM 68.0 °F - 44.1 °F 42% 30.04 in 10.0 mi South 12.7 mph - N/A   Clear
5:53 PM 64.9 °F - 43.0 °F 45% 30.04 in 10.0 mi South 8.1 mph - N/A   Clear
6:53 PM 60.1 °F - 42.1 °F 51% 30.06 in 10.0 mi South 4.6 mph - N/A   Clear
7:53 PM 59.0 °F - 43.0 °F 55% 30.05 in 10.0 mi South 8.1 mph - N/A   Clear
8:53 PM 59.0 °F - 41.0 °F 51% 30.03 in 10.0 mi South 10.4 mph - N/A   Clear
9:53 PM 59.0 °F - 39.2 °F 48% 30.01 in 10.0 mi South 12.7 mph - N/A   Clear
10:53 PM 57.0 °F - 39.9 °F 53% 29.98 in 10.0 mi SSE 13.8 mph - N/A   Clear
11:53 PM 55.9 °F - 39.0 °F 53% 29.94 in 10.0 mi SSE 13.8 mph - N/A   Clear